Location: *
(38.9800°N, 16.0500°E)
Time: 01:14:04
(UTC+00:00)

Daily predictions for brighter satellites

Satellite Brightness Start Highest point End
(mag) Time Altitude Azimuth Time Altitude Azimuth Time Altitude Azimuth
Cosmos 2333 Rocket 4.5 00:18:01 10° NNW 00:19:27 18° N 00:19:27 18° N
CZ-2D R/B 4.2 00:23:39 10° NNE 00:25:51 25° NNE 00:25:51 25° NNE
Cosmos 2237 Rocket 4.3 00:27:44 10° N 00:32:05 22° NE 00:32:55 21° ENE
Cosmos 2297 Rocket 3.9 00:51:16 28° ENE 00:51:16 28° ENE 00:54:34 10° NE
SJ 16-02 4.3 01:00:16 12° N 01:00:16 12° N 01:00:39 10° N
USA 267 4.0 00:51:06 10° NE 00:55:56 43° E 00:55:56 43° E
USA 238 DEB 4.0 01:14:52 58° E 01:14:52 58° E 01:20:48 10° NE
USA 238 4.0 01:14:56 58° E 01:14:56 58° E 01:20:55 10° NE
Cosmos 2227 Rocket 3.2 01:16:59 43° ENE 01:16:59 43° ENE 01:21:15 10° NNE
H-2A R/B 4.4 01:18:33 21° NNE 01:18:33 21° NNE 01:20:24 10° N
Cosmos 1634 Rocket 4.4 01:18:51 10° N 01:24:55 56° E 01:25:22 54° E
Tsikada Rocket 4.4 01:32:37 57° NNW 01:32:37 57° NNW 01:37:48 10° N
Cosmos 1980 4.4 01:29:21 10° NNW 01:33:27 48° N 01:33:27 48° N
ADEOS II 2.9 01:31:17 10° N 01:34:57 46° N 01:34:57 46° N
NOSS 3-2 (A) 3.4 01:39:27 73° NE 01:39:27 73° NE 01:45:09 10° NE
SL-16 R/B 4.3 01:45:30 17° NW 01:45:30 17° NW 01:47:10 10° NW
Cosmos 2150 Rocket 4.4 01:43:14 63° NNE 01:43:14 63° NNE 01:47:48 10° NNE
Cosmos 2298 Rocket 4.5 01:43:46 57° NNE 01:43:46 57° NNE 01:48:00 10° NNE
Resurs 1-4 Rocket 4.0 01:41:48 10° NNW 01:43:46 18° NNW 01:43:46 18° NNW
CENTAUR R/B 2.9 01:45:38 47° SE 01:46:11 49° ESE 01:52:29 10° NE
IDEFIX/ARIANE 42P 3.6 01:47:12 10° NNE 01:52:05 40° E 01:53:23 34° SE
SL-16 R/B 3.7 01:47:10 10° N 01:52:19 34° ENE 01:57:27 10° SE
Cosmos 2082 4.0 01:51:54 58° SE 01:52:20 60° ESE 01:57:59 10° NNE
Spot 4 Rocket 3.9 02:01:04 10° NNE 02:06:07 82° NW 02:06:07 82° NW
ARIANE 5 R/B 2.8 02:01:38 10° N 02:06:10 56° NW 02:06:10 56° NW
Meteor 1-19 Rocket 4.2 02:06:14 62° SSE 02:07:11 79° E 02:12:43 10° NNE
CZ-2D R/B 4.2 02:05:16 10° NNW 02:07:10 15° NW 02:07:10 15° NW
NOSS 3-2 (C) 3.1 02:09:10 71° SSW 02:09:52 89° ESE 02:16:14 10° NNE
Cosmos 2279 Rocket 4.0 02:07:28 10° N 02:13:44 84° E 02:17:53 23° S
Cosmos 389 Rocket 3.7 02:14:57 42° NE 02:14:57 42° NE 02:17:41 10° NNE
STARLINK-1054 4.3 02:15:08 49° ESE 02:15:08 49° ESE 02:18:40 10° ENE
CZ-4B R/B 3.6 02:13:43 12° SE 02:16:19 27° ENE 02:19:21 10° NNE
Cosmos 2237 Rocket 2.9 02:10:57 10° NNW 02:14:38 38° NW 02:14:38 38° NW
STARLINK-1062 4.0 02:19:54 57° ESE 02:19:54 57° ESE 02:23:40 10° NE
RUBIN 8/PSLV 4.4 02:17:43 10° NNE 02:22:01 82° ESE 02:22:10 81° SE
CZ-2C R/B 4.3 02:18:45 10° NE 02:22:29 24° E 02:26:12 10° SSE
STARLINK-1053 3.8 02:24:43 65° ESE 02:24:43 65° ESE 02:28:41 10° NE
ATLAS 5 CENTAUR R/B 4.5 02:20:10 10° N 02:24:59 26° NE 02:30:20 10° E
ATLAS 5 CENTAUR R/B 3.9 02:22:17 17° S 02:25:38 26° SE 02:28:25 10° ENE
Cosmos 1975 3.3 02:21:49 10° N 02:24:53 50° NNW 02:24:53 50° NNW
Cosmos 2263 Rocket 4.3 02:22:26 10° SSE 02:26:47 23° E 02:31:10 10° NE
STARLINK-1061 3.6 02:29:28 72° SE 02:29:30 73° SE 02:33:39 10° NE
BREEZE M DEB (TANK) 4.0 02:30:36 24° NNE 02:30:36 24° NNE 02:32:11 10° NE
Cosmos 2297 Rocket 3.0 02:33:05 33° WNW 02:33:30 33° WNW 02:38:36 10° N
Cosmos 1544 3.5 02:29:51 10° N 02:32:44 53° NNW 02:32:44 53° NNW
STARLINK-1067 3.5 02:34:16 75° S 02:34:30 80° SE 02:38:40 10° NE
Meteor 2-4 Rocket 3.8 02:35:57 27° S 02:39:21 87° W 02:45:17 10° N
STARLINK-1058 3.4 02:39:03 71° SW 02:39:29 88° SE 02:43:38 10° NE
USA 267 3.7 02:34:10 10° NE 02:40:22 48° NW 02:43:17 30° W
Meteor 2-9 Rocket 4.2 02:35:30 10° NNW 02:41:21 72° W 02:47:09 10° S
CZ-2C R/B 3.3 02:37:38 10° N 02:41:11 45° WNW 02:41:11 45° WNW
ATLAS 3B R/B 2.8 02:38:43 26° SSW 02:42:38 72° ESE 02:49:15 10° NE
Cosmos 2180 Rocket 4.4 02:38:05 10° NNW 02:44:16 72° W 02:50:31 10° S
STARLINK-1043 3.5 02:43:48 63° WSW 02:44:26 84° NW 02:48:35 10° NE
SeaSat 1 4.5 02:40:35 10° ESE 02:44:49 30° NE 02:49:04 10° N
STARLINK-1065 3.5 02:44:36 62° WSW 02:45:15 83° NW 02:49:25 10° NE
Cosmos 494 Rocket 3.9 02:41:40 10° NNW 02:46:58 89° ENE 02:52:13 10° SSE
MSX 3.8 02:41:19 10° NNE 02:47:08 89° ESE 02:51:30 18° SSW
Cosmos 1867 4.3 02:46:37 17° S 02:50:35 49° ESE 02:55:50 10° NE
H-2A R/B 4.2 02:55:38 12° NW 02:55:38 12° NW 02:55:58 10° NW
COSMOS 2441 4.2 02:48:46 10° NNE 02:53:34 87° WNW 02:56:50 21° SSW
STARLINK-1063 3.6 02:53:23 48° WSW 02:54:24 70° NW 02:58:33 10° NE
STARLINK-1064 3.7 02:58:10 41° WSW 02:59:24 64° NW 03:03:31 10° NE
Cosmos 2227 Rocket 3.5 02:58:49 22° WNW 03:00:07 23° NW 03:04:35 10° N
Cosmos 1269 Rocket 4.0 02:56:47 10° NNW 03:02:08 85° ENE 03:07:26 10° SSE
Cosmos 1356 3.3 02:58:51 10° N 03:02:17 89° WSW 03:05:42 10° S
STARLINK-1041 3.8 03:02:56 36° W 03:04:22 58° NW 03:08:28 10° NE
Cosmos 1674 Rocket 3.5 03:02:33 10° S 03:06:53 86° E 03:11:17 10° N
STARLINK-1038 3.9 03:07:43 32° W 03:09:22 53° NW 03:13:26 10° NE
deb Chang Zheng 4 4.3 03:07:10 10° N 03:11:04 34° WNW 03:12:29 27° WSW
BREEZE-M DEB (TANK) 3.0 03:11:03 23° WNW 03:12:08 28° NW 03:14:13 10° NNE
USA 234 3.5 03:06:18 10° SE 03:12:49 74° NE 03:19:21 10° NW
STARLINK-1046 4.1 03:12:30 28° W 03:14:21 48° NW 03:18:22 10° NE
Geosat 4.1 03:12:11 10° NNE 03:17:09 62° WNW 03:20:58 17° SW
Cosmos 1689 Rocket 1.9 03:16:02 10° S 03:19:02 79° WSW 03:22:03 10° NNW
STARLINK-1039 4.2 03:17:17 24° W 03:19:21 44° NW 03:23:20 10° NE
STARLINK-1045 4.3 03:22:04 22° W 03:24:20 41° NW 03:28:17 10° NE
Gbstr 26 Del rocket 4.1 03:19:42 13° SSW 03:25:26 59° SE 03:30:32 10° ENE
Meteor 1-13 Rocket 4.5 03:21:14 10° SSW 03:26:49 50° WNW 03:32:18 10° N
STARLINK-1050 4.5 03:26:53 19° W 03:29:22 37° NNW 03:33:15 10° NE
IDEFIX/ARIANE 42P 3.8 03:27:21 10° NNW 03:31:24 24° WNW 03:34:13 15° WSW
Cosmos 1300 Rocket 4.2 03:27:36 10° NNW 03:31:28 32° W 03:35:19 10° SSW
CZ-4B R/B 3.8 03:31:11 10° NNE 03:35:31 57° ESE 03:39:55 10° S
SL-16 R/B 2.8 03:31:23 10° NW 03:36:20 32° WSW 03:41:15 10° SSW
Okean 2 Rocket 4.2 03:33:06 10° NW 03:36:44 24° W 03:40:22 10° SW
CENTAUR R/B 3.5 03:32:49 15° W 03:37:06 32° NW 03:43:13 10° NNE
Cosmos 1484 Rocket 3.4 03:34:12 10° NNE 03:37:57 56° E 03:41:37 10° S
Cosmos 2151 Rocket 4.2 03:34:06 10° NNW 03:38:03 34° W 03:42:01 10° SSW
Cosmos 1092 Rocket 4.1 03:34:26 10° SSW 03:40:39 56° W 03:46:52 10° N
Cosmos 1066 Rocket 4.3 03:34:53 10° SSW 03:40:44 78° W 03:46:37 10° N
Meteor 1-4 Rocket 3.8 03:40:31 14° WSW 03:42:51 24° WNW 03:45:58 10° NNW
Cosmos 1378 Rocket 3.9 03:42:00 10° SSW 03:46:09 45° W 03:50:21 10° N
Shenzhou-11 Module 3.6 03:45:04 10° SSW 03:47:08 22° SSE 03:49:14 10° E
Cosmos 1805 4.1 03:44:31 10° N 03:48:20 54° E 03:52:07 10° SSE
CZ-4B R/B 3.2 03:46:55 11° SW 03:48:39 15° W 03:50:44 10° WNW
STARLINK-43 3.7 03:45:20 10° NW 03:49:00 65° NE 03:52:41 10° ESE
Meteor 1-15 Rocket 4.2 03:46:27 10° NNW 03:52:00 67° W 03:57:36 10° S
Meteor 1-23 Rocket 4.4 03:47:15 10° SSW 03:52:49 56° WNW 03:58:29 10° N
Cosmos 2026 Rocket 4.0 03:46:57 10° SSW 03:52:58 62° W 03:58:59 10° N
ALOS 2.8 03:48:30 10° NNE 03:53:09 64° E 03:57:46 10° S
Cosmos 1378 3.1 03:51:08 10° S 03:54:51 87° W 03:58:36 10° N
ADEOS 4.3 03:50:40 10° N 03:55:20 34° WNW 04:00:00 10° SW
Cosmos 1603 3.7 03:53:42 10° NNW 03:59:19 79° WSW 04:04:57 10° SSE
CZ-2C R/B 3.1 03:56:45 10° N 04:00:42 29° WNW 04:04:39 10° SW
Lacrosse 5 4.4 03:57:53 10° SSE 04:01:21 19° ESE 04:04:50 10° ENE
